Regional Weather Roundup
Issued by NWS

Home | Current Version | Previous Version | Graphics & Text | Print | Product List | Glossary On
Versions: 1 2 3 4 5 6 7 8 9 10 11 12 13 14 15 16 17 18 19 20 21 22 23 24 25 26 27 28 29 30 31 32 33 34 35 36 37 38 39 40 41 42 43 44 45 46 47 48 49 50
000
ASUS43 KMPX 220910
RWRMN
WEATHER ROUNDUP FOR MINNESOTA
NATIONAL WEATHER SERVICE TWIN CITIES/CHANHASSEN MN
300 AM CST THU FEB 22 2018


NOTE: "FAIR" INDICATES FEW OR NO CLOUDS BELOW 12,000 FEET WITH NO
SIGNIFICANT WEATHER AND/OR OBSTRUCTIONS TO VISIBILITY. N/A MEANS
CURRENT SKY AND/OR WEATHER CONDITIONS ARE NOT AVAILABLE.

MNZ060>063-068>070-221000-
   Twin Cities Metro

CITY           SKY/WX    TMP DP  RH WIND       PRES   REMARKS
TWIN CITIES    MOCLDY     8   5  87 CALM      30.60F
ST PAUL        FAIR       6   3  87 CALM      30.62F
CRYSTAL        FAIR       4  -2  76 CALM      30.59F
BLAINE         FAIR       3   0  85 CALM      30.59F
LAKEVILLE        N/A      0   0 100 CALM      30.59F
EDEN PRAIRIE   FAIR       5   1  83 NE6       30.59F WCI  -6
SOUTH ST PAUL  FAIR       4   0  83 CALM      30.61F
LAKE ELMO      FAIR       0  -4  85 CALM      30.60F
$$
MNZ001>005-007-008-013>017-022>024-027-028-221000-
   Northwest Minnesota

CITY           SKY/WX    TMP DP  RH WIND       PRES   REMARKS
BEMIDJI        FAIR     -11 -15  82 S3        30.51S
HALLOCK        FAIR      -2  -8  78 SE12      30.48F WCI -20
ROSEAU         FAIR      -4  -9  77 S7        30.50F WCI -18
WARROAD        FAIR      -2  -6  84 CALM      30.50F
THIEF RVR FALL FAIR      -4  -8  83 SE7       30.50F WCI -18
CROOKSTON      FAIR       1  -4  78 S9        30.52F WCI -14
FOSSTON        FAIR      -4  -9  77 SE6       30.50F WCI -16
DETROIT LAKES  FAIR       3  -2  78 SE6       30.51F WCI  -8
MOORHEAD       FAIR       0  -6  78 SE7       30.52F WCI -13
PARK RAPIDS    FAIR      -8 -14  74 E3        30.50F
MAHNOMEN       FAIR       1  -5  75 SE9       30.49F WCI -14
$$
MNZ006-009>011-018-025>026-221000-
   North Central Minnesota

CITY           SKY/WX    TMP DP  RH WIND       PRES   REMARKS
BAUDETTE       FAIR      -9 -12  87 E5        30.50F WCI -20
FLAG ISLAND    FAIR      -8 -11  84 SE7       30.50S WCI -22
INTL FALLS     FAIR     -15 -17  91 CALM      30.54F
WASKISH        FAIR      -9 -13  84 S3        30.51F
BIG FORK       MOCLDY    -9 -17  70 CALM      30.53F
LONGVILLE      FAIR     -15 -18  84 CALM      30.54F
GRAND RAPIDS   FAIR      -9 -12  87 SE3       30.56F
CRANE LAKE     FAIR     -17 -20  83 CALM      30.58F
ORR            FAIR       0  -6  78 CALM      30.52S
COOK             N/A    -11 -15  84 CALM      30.55S
WALKER         FAIR      -4  -8  84 S3        30.53S
$$
MNZ012-019>021-037-221000-
   Northeast Minnesota

CITY           SKY/WX    TMP DP  RH WIND       PRES   REMARKS
DULUTH         FAIR      -1  -8  72 CALM      30.55F
ELY            FAIR      -8  -9  92 CALM      30.54F
HIBBING        FAIR     -19 -22  86 NW3       30.54F
EVELETH        FAIR     N/A N/A N/A CALM      30.56F
DULUTH HARBOR  FAIR       3  -2  78 S5        30.64S WCI  -6
TWO HARBORS    FAIR       7  -2  66 CALM      30.56S
SILVER BAY     FAIR     -13 -17  84 CALM      30.56F
GRAND MARAIS     N/A     16   2  54 VRB6      30.61F WCI   7
G MARAIS ARPRT FAIR       5  -6  61 W5        30.52F WCI  -4
$$
MNZ029>031-032-039>041-046>048-054>057-064-221000-
   West Central Minnesota

CITY           SKY/WX    TMP DP  RH WIND       PRES   REMARKS
FERGUS FALLS   FAIR       3  -2  78 SE8       30.53F WCI -10
WHEATON        FAIR      -6 -11  77 SE12      30.54F WCI -24
MORRIS         FAIR      -2  -8  78 SE6       30.52F WCI -14
ALEXANDRIA     FAIR       1  -3  83 SE5       30.52F WCI  -9
ELBOW LAKE     FAIR       3  -2  79 E7        30.53F WCI -10
WADENA         FAIR      -9 -13  84 CALM      30.52S
GLENWOOD       FAIR       0  -4  85 SE5       30.53F WCI -10
APPLETON       FAIR       0  -6  78 E3        30.55F
BENSON         FAIR       0  -6  78 SE5       30.55F WCI -10
ORTONVILLE     FAIR       1  -2  85 SE5       30.52F WCI  -8
MADISON        FAIR       3  -2  78 SE3       30.54F
WILLMAR        FAIR       0  -4  85 E3        30.57F
$$
MNZ033>034-036-042>043-049>051-058-059-221000-
   Central Minnesota

CITY           SKY/WX    TMP DP  RH WIND       PRES   REMARKS
ST CLOUD       FAIR      -7 -10  87 CALM      30.58F
SAUK CENTRE    FAIR      -6 -10  82 CALM      30.55F
PAYNESVILLE    FAIR      -4  -7  87 CALM      30.56F
AITKIN         FAIR     -11 -17  77 CALM      30.55F
PINE RIVER     FAIR     -11 -17  77 CALM      30.56F
BRAINERD       FAIR      -8 -13  78 CALM      30.55F
STAPLES        FAIR      -9 -11  92 CALM      30.53F
LONG PRAIRIE   FAIR      -6  -9  84 CALM      30.54F
LITTLE FALLS   FAIR      -8 -15  71 CALM      30.57F
LITCHFIELD     FAIR       1   0  92 CALM      30.56F
BUFFALO        FAIR      -2  -6  82 CALM      30.60F
MAPLE LAKE     FAIR      -3  -6  88 CALM      30.59F
HUTCHINSON     FAIR       1  -3  83 NE3       30.57F
$$
MNZ037-044-045-052-053-221000-
   East Central Minnesota

CITY           SKY/WX    TMP DP  RH WIND       PRES   REMARKS
PRINCETON      FAIR      -6  -9  84 CALM      30.59S
CAMBRIDGE        N/A     -2  -9  71 CALM      30.61S
RUSH CITY      MOCLDY    -4  -8  84 CALM      30.61F
MOOSE LAKE     FAIR      -9 -15  77 CALM      30.58F
HINCKLEY       FAIR      -9 -13  84 CALM      30.60F
CLOQUET        FAIR      -6 -11  77 CALM      30.57R
MCGREGOR       FAIR      -4  -8  84 CALM      30.57F
$$
MNZ071>073-080-081-089-090-097-098-221000-
   Southwest Minnesota

CITY           SKY/WX    TMP DP  RH WIND       PRES   REMARKS
MONTEVIDEO     FAIR       0  -6  78 SE3       30.55F
GRANITE FALLS  FAIR       5   1  83 E5        30.56F WCI  -4
CANBY          FAIR      -2  -6  84 CALM      30.54S
MARSHALL       FAIR       0  -5  79 CALM      30.54S
REDWOOD FALLS  FAIR       4   2  91 CALM      30.55F
OLIVIA         FAIR       3  -2  78 CALM      30.55F
PIPESTONE      FAIR       9   3  78 SE6       30.46F WCI  -1
WORTHINGTON    FAIR      12   8  84 E3        30.50F
JACKSON        CLOUDY    12   7  79 CALM      30.51S
TRACY          FAIR       8   4  85 S5        30.52S WCI  -1
SLAYTON        FAIR       8   4  86 E3        30.49F
$$
MNZ065>067-074>077-082>085-091>093-221000-
   South Central Minnesota

CITY           SKY/WX    TMP DP  RH WIND       PRES   REMARKS
MANKATO        FAIR       9   5  84 NE7       30.56F WCI  -2
NEW ULM        MOCLDY     9   1  72 E7        30.54F WCI  -3
ST JAMES       CLOUDY    12   7  79 E6        30.56R WCI   3
FAIRMONT       FAIR      13   9  84 E6        30.53F WCI   4
GLENCOE        FAIR       3  -1  83 CALM      30.57F
FARIBAULT      CLOUDY     3   0  85 CALM      30.57S
OWATONNA       FAIR      10   5  79 CALM      30.55S
WASECA         FAIR      14   9  79 NE6       30.56F WCI   5
ALBERT LEA     CLOUDY    18  12  79 CALM      30.52F
$$
MNZ078>079-086>088-094>096-221000-
   Southeast Minnesota

CITY           SKY/WX    TMP DP  RH WIND       PRES   REMARKS
ROCHESTER      MOCLDY    15  11  83 E6        30.54F WCI   6
RED WING       FAIR       5   0  78 CALM      30.60F
STANTON        FAIR       3  -1  84 CALM      30.58S
DODGE CENTER   FAIR      10   7  85 CALM      30.54S
WINONA         MOCLDY    14  12  92 CALM      30.59F
AUSTIN         FAIR      19  14  79 MISG      30.54S
PRESTON        CLOUDY    17  12  79 E5        30.56R WCI  10
$$
ABBREVIATIONS USED IN REMARKS
   TC - TEMPERATURES IN CELSIUS
  WCI - WIND CHILL INDEX
   HX - HEAT INDEX
  VSB - VISIBILITY
$$




USA.gov is the U.S. government's official web portal to all federal, state and local government web resources and services.